Wind_Speed
31 32 33 34 35 35 35 35 33 32 31 30 27 24 22 21 22 23 24 22 21 21 22 21 18 16 14 14 14 15 16 16 15 15 15 14 14 15 15 15 15 13 10 10 10 11 13 12 13 12 10 10 10 11 12 13 13 13 15 16 14 12 11 10 9 8 7 7 5 4 4 5 4 3 2 4 6 7 8 9 10 11 12 11 10
29 30 31 32 34 35 36 35 33 32 32 30 27 24 24 23 21 24 26 23 21 22 23 23 21 16 14 16 17 18 18 17 16 16 16 17 16 17 17 17 17 13 11 12 12 12 15 16 16 16 15 14 14 13 13 14 13 11 13 15 15 14 13 12 11 10 8 8 7 6 5 5 6 6 5 5 6 8 9 10 11 11 11 11 9
27 28 29 31 33 34 36 35 35 35 33 31 29 27 28 26 20 20 22 21 21 22 23 24 23 20 20 22 22 21 20 18 17 18 18 18 18 19 20 19 18 17 16 16 16 17 18 19 20 20 20 19 19 18 17 16 15 13 12 14 16 16 15 14 13 12 10 10 9 8 7 5 6 8 8 6 7 8 10 11 12 12 12 11 10
25 26 28 29 31 33 35 36 36 36 35 32 31 29 31 32 26 22 21 21 21 23 24 25 26 26 27 28 28 25 22 20 20 20 20 20 21 22 22 22 22 21 21 21 22 23 23 24 25 25 25 24 22 21 21 20 18 16 15 16 19 19 17 16 14 13 12 12 12 11 9 7 6 7 9 9 8 8 11 12 13 13 13 13 11
23 24 25 26 29 31 33 35 36 36 36 34 34 33 33 35 32 28 27 26 26 25 26 28 30 30 30 31 32 30 27 24 23 25 25 24 24 22 23 25 26 25 25 25 26 27 28 28 27 26 26 25 25 24 23 23 21 19 18 19 21 21 20 18 16 16 15 14 14 12 11 10 8 6 8 10 10 10 11 13 15 15 15 15 14
21 21 22 22 24 26 28 30 32 33 34 34 34 33 34 36 35 33 32 31 31 30 31 32 34 34 33 33 33 33 30 27 26 27 27 26 25 25 26 26 28 29 30 30 30 30 31 29 27 27 27 27 27 26 25 25 24 23 23 23 24 23 21 20 19 19 18 17 16 14 13 13 11 9 7 9 11 13 13 14 16 17 17 17 16
18 18 18 18 19 20 21 23 25 27 29 31 32 32 33 35 36 36 36 34 33 33 34 35 36 36 35 35 35 33 30 27 27 28 29 29 29 31 31 31 32 33 33 33 33 33 32 30 28 27 28 28 28 27 25 25 27 28 28 28 27 26 24 24 23 21 19 19 19 17 15 15 14 12 10 9 10 14 15 15 16 18 19 20 20
15 15 15 16 16 17 19 20 22 23 25 27 29 30 31 33 34 36 36 36 35 34 34 35 35 36 35 34 32 29 26 25 26 28 31 34 36 37 38 38 37 36 36 35 35 34 33 31 28 26 27 28 28 26 26 27 27 29 30 29 28 28 27 27 26 24 21 21 21 19 18 17 16 15 14 12 11 13 15 15 16 18 20 21 22
15 15 15 15 16 17 18 20 21 23 24 25 26 27 28 30 31 33 34 35 35 35 34 34 34 35 34 32 29 26 24 25 27 29 34 37 39 39 39 39 39 38 37 35 34 33 32 30 28 27 27 28 28 28 28 29 29 30 32 31 30 29 30 29 28 26 24 24 23 21 20 19 18 17 17 16 15 14 13 14 17 19 21 22 24
16 16 15 15 16 17 19 20 21 21 22 22 23 24 25 26 28 30 31 33 34 35 35 34 34 34 33 31 30 29 29 30 30 31 33 35 36 37 37 37 36 35 33 32 31 31 30 29 28 29 29 30 30 30 30 30 30 31 31 31 31 31 31 31 30 28 27 25 24 23 21 19 19 20 19 19 19 18 17 16 18 21 23 24 26
15 15 15 15 16 16 16 16 16 16 17 17 18 20 21 23 25 27 29 32 34 35 35 35 34 33 32 30 30 31 32 34 35 35 34 33 33 33 34 34 33 32 31 31 31 31 30 29 29 30 31 31 31 32 32 32 31 31 30 30 30 31 31 31 30 30 29 28 27 25 24 22 22 22 21 21 21 22 22 22 20 20 23 25 26
14 14 15 15 14 13 13 13 13 13 14 14 15 16 18 20 22 24 27 29 32 33 34 33 32 31 30 29 29 30 32 34 35 36 36 35 34 33 33 34 34 34 34 33 33 32 31 32 32 32 32 32 32 32 32 32 33 33 32 32 32 32 32 31 31 31 31 31 30 29 29 27 27 26 26 26 26 26 27 27 24 23 24 25 27
14 15 15 14 13 12 13 13 13 13 13 14 14 15 15 17 19 21 24 26 28 29 29 28 27 26 26 26 26 28 29 31 32 34 35 35 35 34 34 34 34 34 34 33 34 34 34 34 34 35 35 35 35 35 34 34 34 35 35 34 33 33 32 32 32 33 34 34 33 32 32 32 31 30 30 30 31 31 30 28 27 27 25 25 28
16 18 18 16 14 14 15 15 15 15 16 15 15 14 14 15 16 18 21 23 25 25 25 24 23 23 24 25 27 27 27 27 29 30 32 33 33 33 32 33 33 34 34 35 35 36 36 36 36 37 37 38 38 38 39 39 39 40 40 39 38 37 36 35 34 35 35 36 35 35 34 35 34 33 33 34 34 33 32 31 30 30 30 29 29
18 19 19 17 16 15 16 17 17 17 15 14 13 13 14 14 15 16 18 20 21 23 23 24 25 25 25 26 28 29 30 30 29 30 30 31 32 32 33 33 33 33 34 34 35 36 37 37 38 38 39 40 40 41 41 42 42 43 44 44 44 44 43 42 40 39 38 37 37 37 38 38 38 38 38 39 38 36 35 35 34 34 34 33 32
20 20 19 17 16 15 17 18 17 16 14 14 14 14 15 14 14 15 15 16 17 19 20 22 24 26 27 28 29 31 32 33 34 34 34 34 34 34 35 35 35 36 36 36 36 37 38 39 39 40 41 42 42 43 43 44 44 45 45 46 47 47 48 48 47 46 45 43 41 40 40 41 41 42 43 43 42 40 39 38 37 37 38 36 34
24 23 21 20 19 19 19 18 17 16 16 15 15 15 15 15 15 14 13 13 14 15 16 18 19 21 23 26 28 29 31 33 35 36 37 38 38 38 38 38 39 39 40 40 40 41 41 41 42 43 44 45 46 47 47 48 48 49 49 49 50 50 51 51 51 51 50 49 48 47 45 44 43 44 45 46 46 45 44 41 39 40 42 41 38
25 25 25 25 24 23 21 20 19 18 18 17 17 17 16 15 15 15 14 13 13 13 13 14 15 16 18 20 21 24 26 28 30 32 34 35 36 37 37 38 38 39 39 40 40 41 41 41 42 42 44 44 46 47 48 49 49 50 50 51 51 52 53 53 53 53 53 53 53 52 52 50 48 47 47 48 48 48 48 46 43 43 45 44 40
24 25 26 27 26 25 23 22 21 20 19 19 18 17 17 16 16 16 16 16 15 15 14 14 15 15 16 17 19 20 22 24 25 27 28 29 30 30 31 33 33 35 35 36 36 37 37 38 38 39 40 41 42 42 43 44 45 46 47 48 49 49 50 51 52 53 53 54 55 55 56 55 54 53 51 50 50 51 51 51 49 48 48 46 43
23 24 26 26 26 25 24 23 22 21 20 20 19 19 18 18 18 18 18 19 18 18 18 17 17 17 18 18 19 20 22 23 24 25 25 26 26 27 28 30 30 31 32 33 34 35 36 37 37 38 39 40 41 42 43 43 44 45 46 46 47 47 48 49 50 50 51 52 53 54 56 57 57 57 56 54 54 54 54 54 54 53 53 52 50
24 24 24 25 25 25 24 23 22 22 22 21 21 21 21 21 21 21 22 22 22 21 21 21 20 20 20 20 21 21 22 23 24 25 26 27 28 29 30 31 32 33 34 35 36 36 37 39 40 41 42 43 44 44 45 46 46 47 48 48 49 49 50 50 50 51 51 51 52 53 54 55 56 58 59 58 57 57 57 57 57 57 56 56 55
24 24 24 24 24 24 24 23 23 23 24 23 23 23 23 23 24 24 25 25 24 24 23 23 23 23 23 23 23 24 24 25 26 27 28 29 31 32 33 34 35 36 37 38 39 40 41 42 42 44 45 45 46 47 48 48 49 50 51 51 52 52 53 54 54 54 54 54 54 55 55 55 55 57 58 60 60 60 60 60 60 60 60 59 58
25 24 24 25 25 25 24 24 24 24 25 25 25 25 25 26 26 27 27 27 26 26 26 26 26 26 26 27 27 27 27 28 29 30 31 33 34 35 36 37 38 39 40 41 42 42 43 44 44 45 46 47 48 49 50 51 52 53 53 54 55 56 56 57 58 58 58 58 59 59 59 58 58 58 59 60 61 62 62 62 63 63 63 63 62
26 25 26 26 27 26 26 26 25 26 26 27 27 27 27 28 28 28 29 28 28 28 29 29 29 29 30 30 30 30 31 31 32 33 35 36 37 38 38 40 41 42 42 43 43 44 45 46 47 48 49 50 51 52 53 54 55 55 56 57 58 58 59 60 61 62 62 62 62 63 63 63 62 61 62 62 62 64 64 64 64 65 66 66 66
27 27 28 28 28 27 27 27 26 27 28 29 29 29 30 30 30 30 30 30 31 31 31 32 32 32 32 32 33 33 34 34 35 36 38 39 40 41 42 43 44 44 44 44 45 46 47 49 50 51 52 52 53 53 54 55 56 56 57 58 59 60 61 62 63 64 64 64 65 65 66 66 65 65 64 64 64 65 66 67 66 66 67 68 68
29 29 30 29 29 28 28 28 28 28 29 30 31 31 32 33 33 33 33 33 34 34 34 35 34 34 35 35 36 37 37 38 39 40 41 42 43 43 43 44 45 45 46 46 47 49 50 51 52 53 53 54 54 54 54 55 56 56 57 58 59 60 61 62 62 63 64 65 66 66 67 68 68 67 67 66 66 66 67 68 69 68 67 68 69
31 31 30 30 30 29 29 29 29 30 30 32 32 33 35 36 36 36 37 37 37 37 37 37 38 38 39 39 40 40 41 42 43 44 44 44 44 44 45 45 46 47 48 49 50 51 52 53 54 54 54 54 55 54 55 55 55 56 56 57 58 58 59 60 61 62 63 64 65 66 67 67 68 68 68 68 68 68 68 69 70 71 70 69 69
32 31 31 30 30 30 29 29 29 30 32 33 34 35 37 38 39 40 40 39 39 38 38 39 40 41 42 42 43 44 45 45 46 46 47 47 47 47 47 48 49 49 50 51 51 52 53 54 54 54 54 54 54 55 55 55 55 54 54 55 55 56 56 57 58 59 60 61 63 64 65 66 67 68 68 69 69 69 70 70 71 72 73 73 72
31 31 30 30 30 30 30 30 31 32 33 34 35 37 38 39 39 40 40 40 40 40 41 41 42 43 44 45 46 47 47 48 48 48 48 48 49 49 50 50 50 50 51 51 52 52 53 54 55 55 55 55 55 56 55 55 54 54 54 55 55 54 54 54 55 56 56 57 59 60 61 63 65 66 68 69 70 70 71 72 73 74 75 76 76
31 31 31 31 31 31 32 33 34 34 35 35 35 36 37 38 39 39 40 41 41 42 43 43 44 45 45 46 47 47 48 48 48 48 49 49 49 50 50 50 50 50 51 51 52 53 54 55 56 57 57 57 57 57 56 56 55 54 54 55 55 55 55 55 55 56 56 57 57 57 58 59 60 62 64 67 69 70 71 73 74 75 76 78 78
31 31 32 32 32 33 34 34 35 35 35 34 34 35 36 37 37 38 39 40 41 42 42 42 43 44 44 45 45 45 46 46 47 47 47 47 48 48 48 49 50 51 51 53 54 55 56 57 58 59 59 59 58 57 57 56 55 55 55 55 55 56 56 56 57 58 59 59 59 59 58 58 58 59 61 62 65 68 70 72 74 75 77 78 79
31 32 32 33 33 34 35 35 35 35 34 34 35 35 35 36 37 37 38 39 39 40 40 41 41 42 42 43 43 43 43 43 44 44 45 45 46 46 47 49 50 52 53 55 56 57 58 59 60 60 61 60 59 58 58 57 57 57 56 56 56 56 57 57 58 59 60 60 60 60 60 60 60 60 60 61 62 64 66 68 71 73 75 77 79
32 32 33 33 34 34 34 34 34 34 35 35 35 35 36 36 37 37 38 38 38 39 39 40 41 41 42 42 41 41 42 42 42 43 43 44 45 47 48 50 52 54 55 57 58 59 60 60 61 61 62 62 61 61 59 58 58 58 57 57 58 58 58 58 59 60 60 60 61 61 61 61 61 61 61 61 62 63 64 65 67 69 71 75 77
32 33 33 34 34 34 34 34 34 34 35 35 35 36 36 36 36 37 37 37 37 38 39 39 40 40 40 40 40 40 41 41 42 43 44 46 47 49 51 53 54 56 58 59 60 61 61 62 62 62 63 64 63 62 61 60 59 59 58 58 59 59 59 59 60 61 61 61 61 61 62 62 63 62 62 62 62 62 63 64 65 66 68 71 73
32 33 33 34 34 34 34 34 34 34 35 36 36 37 37 37 37 37 37 36 36 37 38 38 38 39 39 39 40 41 42 43 44 46 47 48 50 51 53 55 56 58 59 61 61 62 63 63 64 64 64 64 64 63 62 62 61 60 60 59 60 60 61 61 61 62 62 61 61 61 62 62 63 62 62 62 62 62 63 64 64 66 68 69 70
32 33 33 34 34 34 34 33 33 34 35 36 36 37 37 37 37 37 37 37 36 37 38 38 39 40 41 41 42 43 44 46 47 48 49 50 52 53 55 57 58 60 61 62 62 63 64 64 65 65 65 65 66 65 64 64 63 62 61 61 61 61 62 62 61 62 61 61 60 60 61 61 61 61 61 61 61 61 62 63 64 65 67 68 69
32 32 33 34 34 33 33 32 33 34 35 36 36 37 37 37 37 37 37 37 38 39 39 40 41 42 43 44 45 46 47 48 48 50 51 52 54 56 57 58 59 60 61 62 62 63 64 65 66 66 66 66 67 67 66 64 63 62 62 62 62 61 61 60 60 60 59 59 58 59 59 59 59 59 59 59 59 59 60 61 63 65 66 67 69
31 32 34 35 34 33 32 33 33 35 36 36 37 37 37 37 38 38 38 38 39 40 41 42 44 45 46 46 46 47 48 49 50 51 53 54 56 58 59 59 60 60 61 63 63 64 66 67 67 67 67 67 67 67 66 64 63 62 61 61 61 60 59 58 57 57 57 56 56 56 57 57 57 57 58 57 57 58 59 60 61 63 64 66 68
32 32 34 35 35 33 33 34 34 35 36 37 37 37 37 37 38 38 39 39 40 42 43 44 45 46 46 47 47 48 50 51 52 54 55 57 58 59 59 60 61 62 63 64 65 66 68 69 69 69 68 67 67 67 66 64 63 61 60 59 59 57 56 55 55 55 55 55 55 55 56 56 55 56 57 57 57 57 58 59 60 61 63 65 68
32 33 34 35 34 33 33 34 35 36 37 37 37 38 38 38 38 39 40 41 42 43 44 45 46 46 47 48 49 50 51 52 54 56 57 58 59 60 60 61 62 64 65 66 67 68 69 71 71 70 70 69 67 66 66 64 62 60 57 56 55 55 54 54 54 54 54 54 55 55 55 55 55 56 56 57 57 57 58 59 60 61 62 65 67
32 33 33 34 34 33 33 34 35 36 37 37 38 38 38 38 39 40 41 42 43 44 45 46 47 47 48 49 50 51 52 54 55 57 58 59 60 61 62 63 64 66 67 69 70 70 71 72 72 72 70 68 66 65 64 63 60 57 55 53 53 54 53 53 53 54 53 54 54 55 55 55 55 56 57 57 57 57 57 58 60 61 63 65 67
32 33 33 33 33 33 34 35 36 37 37 37 38 38 39 39 40 41 42 44 45 46 47 47 48 49 49 50 51 52 54 56 57 58 59 60 61 62 63 64 66 67 69 70 71 71 71 71 70 69 67 65 64 62 61 59 58 56 54 53 53 53 53 52 53 54 54 55 56 56 57 57 56 57 57 57 57 57 57 57 59 61 63 64 65
32 32 32 32 33 33 34 36 37 37 37 38 38 39 40 41 42 43 44 45 46 48 48 49 49 50 51 52 53 54 56 57 58 59 60 61 62 63 65 66 67 68 69 70 70 70 69 68 67 65 64 63 61 59 58 57 56 55 54 54 53 54 54 54 54 55 57 58 58 58 59 59 58 58 58 58 58 58 58 59 60 61 63 64 64
31 31 31 32 33 34 35 37 37 38 38 39 40 40 41 42 43 44 46 47 48 49 50 50 50 51 52 54 55 56 57 58 59 59 60 62 63 65 66 67 68 68 68 68 68 67 66 64 63 63 62 60 59 58 57 56 56 55 55 55 55 56 56 56 57 58 59 60 60 60 60 59 58 58 58 59 59 59 60 61 62 63 63 64 64
31 31 32 32 34 35 36 37 38 39 39 40 41 42 43 43 45 46 47 48 50 50 50 51 52 53 54 55 56 57 57 58 59 61 62 63 64 65 67 68 68 68 67 66 65 64 63 61 60 60 60 60 59 58 57 57 57 56 56 56 57 57 57 57 58 59 60 61 61 60 58 58 58 57 57 58 58 59 59 60 62 63 64 64 65
32 32 33 34 35 36 37 38 38 39 40 41 42 43 44 45 46 47 49 49 50 50 51 52 53 54 55 56 56 57 58 59 61 62 63 63 64 65 67 67 67 66 65 63 62 60 59 59 59 59 60 60 60 59 58 58 58 58 57 57 57 58 57 57 57 57 58 58 58 57 56 55 54 54 54 55 56 57 57 58 59 61 61 63 65
33 33 34 35 36 37 37 38 39 40 41 42 43 44 45 46 47 48 49 50 51 51 52 53 54 55 55 55 56 58 59 61 62 63 64 64 65 66 66 65 64 62 61 60 59 58 57 57 58 59 60 61 62 61 59 58 58 57 57 56 55 55 55 54 53 53 53 53 53 53 51 49 49 49 50 51 52 53 54 54 55 57 58 59 62
34 35 36 36 36 37 37 38 39 40 41 42 43 44 45 46 48 49 50 51 52 52 53 54 54 55 55 55 57 59 61 62 63 64 65 65 65 65 64 62 60 57 56 56 56 57 57 57 58 59 60 61 62 61 59 57 55 54 53 52 51 50 49 49 48 47 47 47 46 45 44 44 44 44 45 46 47 48 48 49 51 52 54 56 59
35 35 36 36 36 37 38 39 40 41 42 43 44 45 46 47 49 50 51 51 52 53 54 54 55 55 55 57 59 61 62 63 64 65 66 65 64 62 60 59 56 53 52 53 54 56 57 57 58 59 59 60 61 60 58 54 51 49 48 47 46 44 43 42 42 41 41 41 39 37 38 39 39 40 41 41 41 42 43 44 45 47 50 53 55
35 35 36 36 37 38 38 39 40 41 42 43 44 45 47 48 49 50 51 52 52 53 54 54 54 55 56 59 61 62 62 63 64 65 65 64 62 58 55 54 54 53 52 52 52 54 55 56 58 59 59 58 57 56 53 50 46 44 42 41 40 38 36 36 35 35 35 34 33 33 34 35 36 37 38 38 38 37 38 39 41 42 45 48 51
35 36 36 37 37 38 38 40 41 42 43 44 45 46 48 49 50 51 51 52 53 54 54 54 54 56 59 61 62 62 63 64 63 63 62 60 58 56 53 52 53 54 54 53 53 53 54 55 55 56 56 54 52 50 47 44 42 40 38 36 34 32 30 29 29 30 29 29 29 31 31 32 33 35 36 36 35 35 35 35 36 37 40 43 47
Wind_Direction
232 232 232 232 232 233 232 231 232 235 239 244 246 246 247 248 247 248 250 248 245 242 242 245 248 250 255 261 266 275 280 279 271 258 252 253 252 255 256 263 278 284 279 273 264 263 266 259 253 252 247 241 240 243 252 267 281 290 293 294 293 289 291 295 297 301 312 326 335 320 285 273 282 287 251 209 195 188 184 179 171 165 161 159 157
230 230 230 231 231 231 231 230 229 230 235 239 237 234 239 246 247 246 246 246 243 240 243 249 250 249 255 263 271 277 280 276 262 252 250 247 244 247 256 266 274 277 271 266 261 259 261 260 259 259 255 249 245 244 247 255 265 275 282 287 288 284 283 282 284 287 291 299 311 318 307 286 273 268 263 237 216 205 198 193 186 179 176 174 173
229 228 228 228 229 229 230 229 228 228 233 236 233 231 236 244 245 240 242 245 244 240 241 245 247 250 257 265 271 275 276 270 256 248 247 243 244 251 258 261 260 260 259 256 255 256 258 264 267 265 262 259 254 249 249 249 251 256 264 272 276 278 278 277 276 277 278 282 290 299 303 302 282 263 254 247 233 220 212 205 201 196 193 192 191
227 227 227 227 228 228 229 229 228 229 233 236 235 234 238 243 244 237 236 242 245 243 244 247 249 253 260 268 274 277 275 267 253 246 244 247 256 260 259 257 252 250 250 251 255 257 260 267 270 268 265 264 260 254 251 250 248 247 247 255 263 267 271 275 276 274 272 271 276 284 289 290 286 263 249 245 242 234 226 218 214 211 209 207 204
224 224 225 226 227 228 228 229 229 231 235 238 240 240 240 243 249 247 244 246 246 246 248 251 253 256 262 267 272 274 275 269 257 251 249 256 262 254 244 248 251 251 252 255 258 260 262 266 267 265 263 261 261 258 255 253 249 244 241 248 258 262 265 269 275 278 275 270 269 274 277 277 276 266 250 243 243 244 237 228 224 222 221 220 216
220 218 218 221 224 227 228 229 230 233 236 239 241 242 241 243 251 256 256 255 253 252 253 253 255 258 262 266 269 272 273 268 260 253 250 251 249 238 232 240 249 254 258 260 262 263 264 265 263 261 261 261 261 260 258 254 250 244 242 247 255 259 261 264 273 278 277 274 271 267 266 267 267 264 256 244 241 245 244 237 233 230 229 229 227
213 211 210 212 216 220 224 227 230 233 236 238 241 243 244 246 251 256 260 261 259 257 257 257 258 259 261 264 266 268 268 263 257 251 247 245 242 239 239 243 250 256 261 263 264 264 264 264 261 257 260 263 261 258 253 252 252 250 248 250 254 257 258 262 269 272 271 271 270 265 260 259 261 259 254 245 239 242 243 240 238 236 234 234 233
208 207 208 211 217 222 227 230 233 235 237 240 242 244 246 248 250 253 258 261 262 261 260 259 259 259 259 259 259 261 260 256 252 247 245 246 246 246 248 251 256 261 263 263 263 263 263 264 260 255 256 260 260 255 246 243 247 251 252 254 254 255 257 260 264 264 261 262 266 265 259 254 255 257 254 247 242 244 243 241 243 242 238 237 238
211 212 213 216 222 229 233 236 239 240 242 244 245 247 248 249 250 251 253 257 260 261 261 260 258 257 256 252 249 246 242 240 239 237 241 245 248 251 254 258 262 265 266 265 264 263 264 263 260 255 254 257 258 257 249 244 245 249 253 256 256 255 256 257 259 259 257 258 261 261 260 256 254 254 253 250 248 248 245 241 243 244 240 238 239
214 215 216 218 223 230 235 239 242 244 245 247 248 249 250 251 251 252 252 254 256 258 259 258 256 255 253 248 244 239 235 235 234 235 240 244 248 252 256 259 261 263 263 263 264 265 264 262 259 256 255 256 257 258 256 252 250 249 251 254 256 256 256 257 256 256 256 256 256 256 257 257 255 252 249 249 250 250 248 241 238 240 240 240 240
215 217 222 225 227 229 232 238 242 244 246 248 251 253 254 255 255 256 256 257 257 257 257 256 254 253 251 247 243 240 238 239 241 243 246 250 253 254 254 254 255 256 257 259 260 260 258 256 255 255 256 256 255 255 255 255 255 253 250 251 253 255 256 256 257 256 255 253 254 254 253 250 249 246 243 244 243 241 242 240 235 234 236 239 242
217 221 226 225 221 222 226 231 237 240 245 248 252 256 257 259 259 260 260 259 259 257 256 254 253 250 248 245 243 242 243 244 246 249 252 256 259 260 259 258 258 258 258 258 257 256 254 253 252 253 254 254 254 253 253 253 253 253 251 249 251 253 254 254 255 255 255 254 254 254 254 251 247 243 240 240 238 235 236 237 234 233 233 234 235
221 219 215 214 214 221 229 232 237 247 255 259 260 262 263 263 263 263 262 261 259 258 255 252 248 245 242 241 241 243 245 246 248 251 254 256 258 259 260 260 260 260 259 258 258 258 257 256 255 255 254 253 253 254 255 256 256 256 255 253 252 251 251 250 250 251 252 253 253 253 252 251 249 246 243 242 240 238 239 239 238 237 236 236 234
220 215 211 214 224 236 245 252 261 271 273 270 268 270 272 273 271 268 265 263 260 257 252 245 241 240 239 237 237 238 240 242 243 246 248 250 251 251 251 252 254 256 257 258 259 260 260 260 259 259 259 258 258 259 261 261 261 262 262 262 261 259 257 254 252 250 250 250 249 249 249 248 248 246 244 243 242 240 239 241 242 242 240 238 238
218 218 216 221 232 244 256 266 274 278 277 275 278 282 285 283 279 275 270 265 261 256 251 245 240 238 238 239 237 237 239 242 243 245 245 247 248 249 251 253 255 256 258 259 259 259 260 261 261 261 261 262 262 263 264 265 264 264 264 265 266 267 266 265 262 259 256 253 249 246 246 246 246 245 244 244 245 242 240 241 243 245 246 243 241
220 224 226 230 239 249 259 268 272 274 275 280 286 291 291 286 280 276 272 268 263 258 253 249 246 244 244 244 244 244 244 246 249 252 254 255 256 257 258 260 262 264 265 266 266 266 267 267 268 268 268 267 267 266 266 266 266 266 266 266 266 267 268 268 267 265 263 261 257 252 247 246 245 245 244 244 245 244 242 242 243 245 247 247 245
227 233 238 242 246 251 257 262 266 269 273 279 285 288 287 282 275 271 269 267 264 259 254 249 247 246 246 247 248 249 250 251 253 255 257 260 261 262 263 265 266 268 270 272 273 273 274 274 275 275 275 275 274 273 272 271 270 269 269 268 267 267 267 267 267 266 264 262 261 259 255 251 247 246 245 245 245 245 244 242 241 241 241 242 244
231 236 243 246 248 250 253 256 260 266 271 275 280 283 282 279 273 268 265 263 260 256 252 248 245 244 244 246 247 248 250 252 253 255 257 259 261 263 265 266 267 269 270 271 273 273 274 274 274 274 274 274 274 273 273 272 271 270 270 269 269 268 267 267 266 265 264 263 262 261 259 257 254 250 248 246 246 245 245 243 240 237 236 239 241
234 238 243 246 246 249 251 254 259 265 270 273 276 278 278 277 275 270 266 265 263 259 253 249 246 246 246 247 249 250 251 252 253 254 256 258 259 261 263 264 266 267 268 269 270 271 271 271 271 270 270 271 270 270 270 270 270 269 269 268 267 267 267 266 265 264 263 262 261 260 259 258 257 255 252 250 248 246 246 244 241 238 236 237 239
235 240 243 245 246 248 251 255 261 266 270 270 272 274 275 275 275 273 270 268 268 267 264 261 257 255 254 254 254 255 256 256 256 256 257 258 260 262 264 266 267 269 270 270 270 271 271 271 271 271 271 271 271 271 270 270 270 269 269 268 267 266 266 266 265 264 262 261 260 259 258 257 257 256 255 252 249 248 247 246 244 241 238 237 237
233 238 242 245 247 249 252 256 260 265 268 269 269 270 272 274 275 276 274 272 271 271 272 271 270 269 268 266 265 264 263 263 263 263 264 266 268 271 272 273 273 274 274 274 274 274 274 275 275 276 276 275 275 274 273 272 272 271 270 269 268 267 266 265 264 263 262 261 260 259 258 257 255 255 255 253 251 248 246 246 245 244 242 240 238
232 237 243 247 250 252 254 257 260 263 266 267 268 268 269 272 275 277 276 274 272 272 274 275 275 276 276 277 276 275 273 271 271 271 272 274 277 278 278 278 277 277 277 277 276 276 276 276 276 276 276 276 275 274 273 272 272 271 270 269 269 268 267 266 264 263 262 261 260 259 258 257 256 255 254 254 252 249 246 244 244 244 243 242 240
231 236 242 247 251 253 255 258 261 263 264 265 266 267 268 270 272 274 275 274 274 274 275 276 276 277 278 279 279 279 278 276 276 275 276 278 279 280 280 280 280 280 280 279 279 279 278 278 278 277 277 276 275 273 272 271 270 270 270 269 268 267 267 266 265 263 262 261 260 259 258 257 256 256 255 254 253 251 248 245 242 242 242 242 241
231 235 240 245 250 253 256 259 261 262 262 262 263 264 266 268 270 271 272 273 274 275 276 277 277 278 279 279 280 280 279 278 278 278 279 280 281 282 282 282 282 282 282 282 281 281 280 280 280 280 279 278 277 275 274 273 271 270 270 269 268 267 266 265 264 263 262 261 260 259 258 257 256 255 254 254 253 252 250 248 244 241 240 240 240
233 235 239 243 247 252 255 257 259 259 259 259 260 261 263 266 267 268 269 271 273 275 276 278 278 278 279 279 280 280 280 280 280 280 281 282 283 283 283 283 283 283 283 283 283 282 282 282 282 282 282 281 279 278 276 275 274 273 271 270 268 267 266 265 264 263 262 261 260 259 258 257 256 255 254 253 252 251 250 249 246 243 240 239 238
236 237 239 242 245 250 253 256 257 258 258 259 261 262 264 266 267 268 269 271 273 275 276 277 278 278 278 279 279 280 281 281 282 283 284 284 284 284 284 283 284 284 284 284 284 285 285 284 284 284 283 283 281 280 279 278 276 275 273 272 270 268 266 265 264 263 262 261 260 259 258 257 256 255 253 252 251 250 248 247 246 245 242 240 238
237 238 240 243 246 250 253 256 257 259 260 261 262 264 265 266 268 268 270 271 273 275 276 276 277 278 278 279 280 282 283 284 285 286 286 286 285 285 285 285 285 286 286 286 286 286 285 285 285 285 285 285 284 283 282 281 280 278 276 274 272 271 269 267 265 264 262 261 260 259 258 257 256 255 253 252 250 249 248 246 245 244 243 242 240
238 239 242 245 248 252 255 257 259 260 261 261 262 263 264 265 266 267 269 270 272 272 273 274 276 277 279 280 282 283 284 285 286 287 286 285 285 286 286 286 286 286 286 285 285 284 285 285 286 286 287 287 287 286 285 284 282 281 279 278 275 274 272 270 268 266 264 262 261 259 258 257 256 255 254 252 250 248 247 246 245 244 243 243 242
241 242 244 247 250 253 255 257 258 259 259 260 261 262 262 263 264 266 268 269 271 272 273 274 276 277 279 280 282 283 284 285 286 285 285 285 285 285 286 285 285 284 284 284 284 285 286 287 287 288 288 288 288 287 286 285 283 282 281 280 278 277 275 273 271 270 268 266 263 261 259 258 256 255 254 253 251 249 247 246 245 244 243 243 243
245 245 247 248 250 252 254 256 258 259 261 262 263 264 265 266 267 269 270 271 272 274 275 276 277 279 280 281 282 283 284 284 284 284 284 284 285 285 285 284 284 284 284 285 286 286 287 287 287 287 288 288 288 287 286 285 283 282 281 280 278 277 276 275 274 273 271 269 267 265 262 260 257 255 254 252 252 250 249 247 246 244 244 243 243
248 248 249 250 251 254 256 258 260 263 265 266 268 269 270 271 272 272 273 273 274 275 276 277 279 280 282 283 283 283 283 283 283 283 284 284 284 284 284 285 285 286 287 287 287 287 287 287 287 288 288 288 288 288 287 286 285 284 282 281 278 277 276 275 274 273 272 271 269 267 265 262 260 258 255 253 252 251 250 249 247 246 245 244 243
251 252 253 254 255 257 259 261 264 266 268 270 272 273 275 275 276 276 276 276 276 277 278 280 281 283 284 284 284 283 283 282 282 283 284 284 285 285 286 287 288 288 288 288 287 287 287 287 288 289 289 290 290 289 289 288 287 286 284 283 280 278 276 276 275 274 273 271 270 268 266 264 262 260 258 255 253 252 250 249 248 247 246 245 244
254 255 256 258 259 261 263 265 267 270 272 274 276 278 279 279 278 278 279 279 280 281 282 283 284 285 284 284 283 282 282 282 283 284 285 286 287 288 289 289 289 289 288 288 288 288 288 289 289 290 290 290 290 290 289 288 287 286 284 283 281 280 278 277 276 275 273 272 270 269 267 265 263 261 259 257 255 253 252 250 249 248 247 246 244
259 260 261 262 264 266 268 270 272 274 276 277 279 280 281 280 280 281 282 283 285 286 286 286 286 286 285 285 284 283 284 285 287 288 289 289 290 290 290 290 290 290 289 289 289 289 290 290 290 290 290 290 290 290 289 288 287 286 285 284 282 281 280 278 277 276 274 272 270 269 267 266 264 262 260 258 256 254 253 251 250 249 247 246 245
263 264 266 267 269 271 272 274 276 278 279 280 281 282 282 282 282 283 285 287 289 289 289 289 290 290 289 288 288 289 290 291 292 292 292 291 291 291 291 291 290 290 290 290 291 291 291 291 291 291 291 290 290 290 290 290 289 288 287 285 284 282 281 279 278 276 274 273 271 269 268 266 265 263 261 259 257 255 253 252 250 249 248 246 245
265 266 268 270 272 273 276 278 280 281 281 282 282 282 282 283 283 285 287 289 289 290 291 293 294 294 293 291 292 293 294 295 294 294 293 293 292 292 292 292 292 292 292 292 292 291 291 291 291 292 292 291 291 291 291 290 289 288 287 286 284 283 282 280 278 276 275 273 272 270 268 267 265 263 262 260 258 256 254 252 251 249 248 247 245
267 269 271 272 273 276 279 281 282 283 284 284 283 283 284 285 286 286 288 290 291 293 294 295 294 294 293 293 294 295 296 296 295 295 294 294 293 293 293 293 294 294 294 293 292 292 292 292 292 292 292 292 292 292 292 291 290 288 287 286 284 283 281 279 278 277 275 274 272 270 269 267 266 264 262 260 258 256 254 252 251 249 248 247 246
269 270 272 274 277 280 282 284 285 286 287 286 286 286 287 287 287 288 289 291 293 294 294 294 294 293 293 294 295 295 296 296 296 295 294 294 294 294 295 296 296 295 294 294 293 293 292 292 292 292 293 293 293 292 292 291 290 289 287 286 285 283 281 279 278 276 275 273 272 270 269 267 265 264 263 260 258 256 254 252 250 248 247 246 245
269 270 272 275 279 282 284 286 287 287 287 287 287 287 288 288 288 288 290 291 292 293 293 293 293 294 294 295 296 296 296 297 296 295 295 295 295 295 296 296 295 295 294 294 293 293 292 293 293 293 293 294 293 293 292 291 290 288 287 286 284 283 281 280 278 276 275 274 272 270 268 267 265 264 262 261 258 256 254 253 250 248 247 245 244
270 271 273 275 279 282 284 286 286 287 286 287 287 287 288 288 288 289 290 291 292 293 294 294 295 295 295 296 296 297 297 296 295 295 295 295 295 295 295 295 295 295 294 293 293 293 293 294 294 294 294 294 293 293 292 291 290 288 287 285 284 282 281 280 278 277 275 274 273 271 269 267 266 264 262 261 259 256 254 253 251 249 247 245 244
273 274 275 277 280 282 284 284 285 285 286 287 287 288 289 289 290 290 290 291 292 293 294 295 295 296 296 296 297 297 296 295 295 295 295 295 295 295 295 295 295 295 294 294 295 295 295 295 295 294 294 294 293 292 291 290 289 288 287 285 284 283 281 280 279 278 277 275 273 272 270 268 266 265 263 261 260 257 255 254 252 250 248 247 245
274 275 277 278 281 282 283 283 283 285 287 288 289 289 290 290 290 290 291 292 293 294 295 295 296 296 296 297 297 296 295 295 295 296 296 296 296 295 295 295 295 295 295 295 296 296 296 296 295 295 294 293 292 291 291 290 290 289 288 287 286 284 283 282 281 279 278 276 274 272 271 269 267 265 264 263 261 260 257 255 253 251 250 249 247
275 276 278 279 280 281 281 282 284 286 288 289 290 290 290 289 290 290 291 292 293 294 295 296 296 297 297 297 296 296 296 297 297 297 297 297 296 295 295 295 295 295 295 295 296 296 296 296 296 295 294 293 292 292 292 291 291 291 290 289 288 287 285 284 282 280 278 277 275 273 271 270 269 268 267 265 263 261 259 256 253 252 250 249 247
275 276 278 279 280 280 281 282 285 287 288 289 289 290 289 290 290 291 291 293 294 295 296 297 298 298 298 297 297 297 298 298 298 298 297 296 296 296 295 295 295 296 296 296 296 296 296 296 296 295 294 294 294 294 293 293 293 292 292 291 290 288 286 285 283 281 279 277 275 274 274 273 272 270 268 266 264 262 260 257 255 252 250 248 247
276 277 278 279 279 280 281 283 285 286 287 289 289 290 290 290 290 291 292 293 295 297 298 299 299 299 299 298 298 298 298 299 298 298 297 297 296 296 296 296 297 297 298 298 298 297 297 297 297 297 296 296 296 296 295 295 295 294 293 292 290 288 286 284 283 281 279 278 278 277 276 275 274 272 271 269 267 264 261 259 256 254 251 249 246
277 278 279 278 279 280 281 283 284 286 287 288 289 289 289 290 291 293 294 296 298 299 300 300 300 299 298 298 299 299 299 299 298 298 298 297 297 297 297 298 299 300 300 299 299 299 299 299 299 298 298 297 297 296 296 296 296 295 294 293 290 288 286 284 282 280 279 279 279 278 277 276 275 275 273 270 268 266 263 261 258 255 253 250 247
277 277 277 278 279 280 282 283 284 285 286 287 288 289 290 292 293 295 297 298 300 300 300 299 299 298 298 299 300 300 300 299 299 299 299 299 299 299 300 300 301 301 301 301 300 300 300 300 299 299 298 298 297 297 298 298 297 296 294 292 289 287 285 283 282 280 279 278 278 278 279 278 276 274 272 270 268 267 265 263 261 258 255 252 249
274 275 277 279 280 281 282 283 283 284 286 287 289 291 293 294 296 297 299 299 300 299 299 298 298 298 300 300 300 300 300 300 300 301 301 301 302 302 302 302 302 302 302 302 302 302 301 300 299 298 298 298 298 299 299 299 298 296 293 291 288 287 285 284 283 281 279 278 279 280 280 279 276 275 273 271 270 269 267 264 262 259 257 254 250
274 276 278 279 280 280 281 282 284 285 287 289 291 293 294 296 297 297 298 298 298 298 298 298 298 300 300 301 301 301 301 302 302 303 304 304 304 304 303 303 303 303 303 303 302 302 301 301 300 300 300 299 300 300 300 299 298 295 292 290 289 287 286 284 283 282 282 282 284 284 283 283 282 281 278 276 274 272 270 266 262 259 256 253 251
276 277 277 278 279 281 282 284 286 288 290 291 293 294 295 295 296 297 297 297 297 298 298 299 300 301 301 302 303 303 303 303 304 305 305 305 305 305 305 305 305 305 304 303 302 301 301 302 302 302 301 301 301 300 300 299 298 295 293 292 291 289 288 286 285 285 286 289 291 291 290 290 289 287 285 282 280 276 273 269 265 260 256 253 250
276 277 278 280 281 283 285 287 288 289 291 292 292 293 294 294 295 296 297 297 298 299 300 301 301 302 303 303 303 303 304 305 306 306 306 306 306 307 307 307 306 306 306 305 304 304 304 304 304 303 303 302 301 300 300 300 300 298 297 295 294 293 291 289 289 291 294 296 298 297 297 296 294 292 290 288 285 281 277 273 268 263 257 253 249
Height
10959 10961 10963 10964 10966 10967 10969 10971 10973 10975 10976 10978 10979 10981 10983 10984 10985 10986 10988 10988 10990 10990 10989 10987 10986 10986 10986 10987 10987 10988 10988 10988 10988 10987 10987 10987 10987 10988 10988 10987 10987 10988 10988 10988 10989 10989 10989 10989 10990 10990 10991 10991 10991 10992 10992 10993 10994 10994 10994 10993 10991 10991 10990 10989 10988 10987 10987 10986 10986 10986 10985 10985 10985 10985 10985 10985 10985 10985 10985 10985 10984 10983 10983 10983 10982
10956 10957 10959 10960 10962 10964 10965 10967 10970 10972 10973 10974 10976 10978 10980 10981 10982 10982 10983 10984 10985 10985 10985 10984 10984 10985 10985 10985 10985 10985 10986 10986 10986 10985 10986 10986 10986 10986 10986 10986 10986 10986 10987 10987 10987 10987 10987 10988 10988 10989 10989 10989 10990 10990 10990 10991 10992 10992 10993 10992 10990 10989 10989 10988 10988 10987 10986 10986 10986 10986 10986 10986 10986 10986 10986 10986 10986 10986 10986 10986 10985 10985 10984 10984 10983
10953 10954 10955 10957 10958 10960 10962 10964 10966 10968 10970 10971 10972 10974 10976 10977 10978 10979 10980 10980 10980 10980 10980 10981 10982 10983 10983 10982 10982 10983 10983 10983 10983 10983 10983 10983 10984 10983 10983 10984 10984 10984 10985 10985 10986 10985 10985 10986 10987 10987 10987 10987 10988 10988 10989 10990 10990 10991 10992 10991 10989 10988 10987 10987 10986 10986 10985 10985 10985 10986 10986 10987 10988 10988 10987 10987 10987 10987 10987 10987 10986 10986 10985 10985 10984
10950 10951 10952 10954 10955 10956 10959 10961 10963 10965 10966 10967 10969 10971 10972 10973 10974 10975 10976 10977 10977 10977 10977 10978 10979 10980 10980 10979 10980 10980 10980 10980 10980 10981 10981 10981 10981 10981 10981 10981 10982 10982 10982 10983 10983 10984 10984 10984 10984 10984 10984 10985 10985 10986 10986 10987 10988 10989 10990 10989 10988 10986 10986 10985 10984 10984 10984 10984 10984 10985 10986 10987 10988 10988 10987 10987 10987 10988 10987 10987 10987 10987 10987 10986 10986
10947 10949 10950 10951 10952 10954 10956 10958 10960 10962 10963 10964 10966 10968 10969 10969 10970 10971 10973 10974 10974 10974 10975 10975 10975 10976 10976 10976 10977 10977 10977 10977 10978 10978 10979 10979 10979 10979 10978 10978 10979 10979 10980 10980 10980 10981 10981 10982 10982 10981 10981 10982 10982 10982 10983 10984 10985 10986 10987 10987 10986 10984 10983 10983 10982 10982 10982 10983 10983 10984 10985 10986 10987 10987 10987 10987 10987 10988 10988 10988 10988 10988 10988 10987 10987
10945 10946 10948 10949 10950 10952 10953 10955 10957 10959 10960 10961 10963 10964 10965 10966 10966 10967 10968 10970 10970 10971 10972 10972 10972 10972 10972 10973 10973 10974 10974 10974 10974 10975 10976 10976 10976 10976 10975 10975 10976 10977 10976 10976 10976 10977 10978 10978 10978 10978 10978 10979 10979 10979 10980 10980 10981 10982 10983 10983 10982 10981 10981 10980 10980 10980 10980 10981 10982 10983 10984 10984 10985 10986 10986 10986 10986 10987 10987 10988 10988 10988 10988 10988 10988
10943 10945 10946 10948 10949 10950 10951 10953 10955 10956 10957 10959 10960 10961 10962 10962 10962 10963 10964 10965 10966 10967 10968 10968 10968 10968 10968 10969 10970 10971 10971 10971 10971 10971 10973 10973 10973 10973 10973 10973 10973 10973 10973 10973 10973 10973 10974 10974 10975 10975 10975 10975 10976 10976 10976 10977 10977 10977 10978 10978 10978 10978 10978 10978 10978 10978 10978 10978 10979 10981 10982 10983 10984 10985 10985 10986 10986 10986 10986 10987 10987 10988 10988 10988 10988
10942 10944 10945 10946 10947 10948 10950 10951 10952 10953 10955 10956 10957 10957 10958 10959 10959 10960 10960 10961 10962 10963 10963 10963 10963 10964 10964 10965 10966 10967 10968 10968 10968 10968 10969 10969 10969 10969 10969 10969 10969 10970 10970 10970 10970 10970 10970 10971 10971 10971 10971 10972 10972 10973 10973 10973 10972 10972 10973 10974 10974 10974 10974 10975 10975 10975 10975 10976 10976 10978 10979 10981 10982 10983 10984 10985 10985 10985 10985 10985 10985 10986 10987 10987 10987
10941 10943 10944 10945 10946 10947 10948 10949 10950 10951 10952 10953 10953 10954 10955 10955 10956 10956 10957 10957 10958 10958 10959 10959 10959 10960 10961 10962 10962 10963 10965 10966 10966 10966 10965 10965 10965 10965 10965 10965 10965 10965 10965 10966 10966 10966 10966 10966 10967 10967 10968 10968 10969 10969 10970 10970 10969 10968 10968 10969 10970 10970 10971 10971 10971 10972 10972 10973 10974 10975 10976 10978 10980 10981 10982 10983 10984 10984 10984 10984 10984 10984 10984 10984 10986
10940 10941 10942 10943 10944 10945 10946 10947 10947 10948 10949 10950 10951 10951 10952 10952 10952 10953 10953 10954 10954 10954 10955 10955 10956 10956 10957 10958 10958 10959 10960 10961 10962 10962 10962 10962 10962 10962 10962 10961 10961 10961 10962 10962 10962 10962 10963 10963 10963 10963 10964 10964 10965 10965 10966 10966 10965 10964 10964 10965 10966 10966 10966 10967 10968 10968 10969 10970 10971 10972 10974 10975 10977 10978 10979 10980 10981 10982 10982 10982 10982 10982 10981 10981 10983
10938 10939 10940 10941 10942 10943 10944 10945 10946 10946 10947 10948 10948 10949 10949 10949 10949 10949 10949 10949 10949 10950 10950 10951 10952 10952 10952 10953 10954 10955 10955 10956 10957 10958 10958 10958 10958 10958 10958 10958 10958 10958 10958 10958 10958 10959 10959 10959 10959 10959 10959 10960 10960 10961 10961 10961 10961 10961 10961 10961 10961 10962 10962 10963 10963 10964 10965 10966 10968 10969 10971 10972 10973 10973 10974 10975 10976 10977 10977 10977 10978 10979 10978 10979 10980
10937 10937 10938 10938 10940 10941 10942 10943 10944 10944 10945 10945 10945 10946 10946 10946 10946 10945 10945 10945 10945 10945 10945 10946 10947 10947 10948 10949 10950 10950 10951 10952 10953 10953 10954 10954 10954 10954 10954 10954 10954 10954 10954 10955 10955 10955 10955 10956 10956 10955 10955 10955 10955 10956 10956 10956 10956 10956 10957 10957 10957 10958 10958 10959 10959 10960 10961 10962 10964 10966 10967 10968 10968 10969 10969 10969 10969 10970 10970 10972 10973 10974 10974 10975 10977
10935 10936 10936 10937 10938 10940 10940 10941 10942 10942 10943 10943 10943 10943 10943 10943 10943 10943 10942 10942 10942 10941 10942 10942 10942 10943 10944 10945 10946 10947 10948 10948 10949 10949 10949 10950 10950 10950 10950 10950 10950 10950 10950 10950 10950 10951 10951 10951 10951 10951 10951 10951 10951 10951 10951 10951 10951 10951 10952 10952 10953 10953 10954 10954 10955 10956 10957 10958 10960 10961 10962 10963 10963 10964 10964 10965 10965 10966 10967 10968 10970 10970 10971 10972 10972
10933 10934 10935 10936 10937 10938 10938 10939 10939 10940 10940 10940 10941 10941 10940 10940 10940 10940 10940 10940 10939 10939 10939 10939 10939 10940 10941 10942 10943 10944 10944 10945 10945 10945 10945 10946 10946 10946 10946 10946 10946 10946 10946 10946 10945 10945 10945 10945 10946 10946 10946 10946 10946 10946 10946 10946 10946 10946 10946 10946 10947 10947 10948 10949 10950 10951 10952 10953 10955 10956 10957 10958 10959 10959 10960 10960 10961 10962 10964 10965 10966 10966 10966 10967 10968
10932 10932 10933 10934 10935 10935 10936 10936 10937 10937 10938 10938 10938 10938 10938 10938 10937 10937 10937 10937 10937 10937 10937 10937 10937 10938 10938 10939 10940 10940 10941 10941 10941 10941 10941 10942 10942 10942 10942 10941 10941 10941 10941 10941 10940 10940 10940 10940 10940 10940 10940 10941 10941 10941 10941 10941 10941 10941 10941 10941 10941 10941 10942 10943 10944 10945 10947 10948 10949 10950 10951 10952 10953 10954 10955 10955 10956 10957 10959 10960 10960 10961 10961 10963 10964
10930 10931 10931 10932 10932 10933 10934 10934 10935 10935 10936 10936 10936 10935 10935 10935 10935 10935 10934 10934 10934 10934 10934 10934 10935 10935 10935 10936 10936 10936 10937 10937 10937 10937 10937 10937 10937 10937 10937 10936 10936 10936 10935 10935 10935 10935 10935 10935 10934 10934 10934 10935 10935 10935 10935 10936 10936 10936 10936 10936 10936 10937 10937 10937 10938 10939 10940 10941 10943 10944 10946 10947 10947 10948 10949 10949 10950 10952 10953 10954 10955 10956 10957 10958 10959
10929 10929 10930 10930 10931 10931 10932 10932 10933 10933 10934 10934 10934 10934 10933 10933 10933 10933 10932 10932 10932 10932 10932 10932 10932 10932 10932 10932 10932 10933 10933 10933 10933 10933 10933 10932 10932 10932 10932 10932 10931 10931 10930 10930 10930 10930 10930 10929 10929 10929 10929 10928 10928 10929 10929 10929 10929 10929 10930 10930 10930 10931 10931 10931 10932 10932 10933 10934 10935 10937 10938 10940 10941 10942 10942 10943 10944 10946 10947 10948 10950 10951 10951 10952 10954
10928 10928 10929 10929 10930 10930 10930 10931 10931 10931 10932 10932 10932 10932 10931 10931 10931 10931 10931 10931 10931 10930 10930 10930 10929 10929 10929 10929 10929 10929 10929 10929 10929 10929 10928 10928 10928 10928 10928 10927 10927 10926 10926 10925 10925 10925 10925 10925 10924 10924 10923 10923 10923 10922 10922 10922 10923 10923 10922 10923 10923 10923 10923 10924 10925 10925 10926 10927 10928 10929 10930 10932 10934 10935 10936 10937 10938 10939 10941 10942 10944 10945 10946 10947 10948
10927 10927 10927 10928 10928 10928 10929 10929 10929 10929 10930 10930 10930 10929 10929 10929 10929 10929 10929 10929 10929 10929 10928 10928 10927 10927 10927 10926 10926 10926 10925 10925 10925 10924 10924 10924 10924 10924 10923 10923 10922 10922 10922 10921 10921 10920 10920 10920 10919 10919 10918 10918 10917 10917 10916 10916 10916 10916 10916 10916 10916 10916 10915 10916 10917 10917 10918 10919 10920 10921 10922 10923 10925 10926 10928 10929 10930 10932 10933 10935 10937 10938 10940 10941 10942
10925 10925 10925 10926 10926 10926 10927 10927 10927 10927 10927 10927 10927 10927 10927 10927 10927 10927 10927 10927 10927 10927 10926 10926 10925 10925 10924 10923 10923 10922 10922 10922 10921 10921 10921 10920 10920 10920 10919 10919 10918 10918 10917 10917 10916 10916 10915 10914 10914 10913 10913 10912 10912 10911 10910 10910 10909 10909 10909 10909 10909 10909 10908 10908 10909 10909 10910 10911 10912 10912 10913 10914 10916 10917 10919 10921 10923 10924 10925 10927 10929 10931 10932 10934 10936
10922 10923 10923 10924 10924 10924 10925 10925 10925 10925 10925 10925 10925 10925 10925 10925 10925 10925 10925 10925 10924 10924 10924 10923 10922 10922 10921 10920 10920 10919 10918 10918 10918 10917 10917 10917 10916 10916 10915 10915 10914 10913 10913 10912 10911 10910 10910 10909 10908 10907 10907 10906 10905 10905 10904 10903 10902 10902 10901 10901 10901 10901 10901 10901 10901 10901 10902 10903 10903 10903 10904 10905 10907 10908 10909 10911 10913 10915 10917 10918 10920 10922 10924 10926 10928
10920 10921 10921 10922 10922 10922 10922 10922 10923 10922 10922 10922 10922 10922 10922 10922 10922 10922 10922 10922 10921 10921 10920 10920 10919 10918 10918 10917 10916 10915 10915 10914 10913 10913 10913 10912 10912 10911 10911 10910 10909 10908 10907 10906 10905 10905 10904 10903 10902 10902 10901 10900 10899 10898 10897 10896 10895 10894 10894 10893 10893 10893 10893 10893 10893 10893 10894 10894 10894 10895 10895 10896 10898 10899 10900 10901 10902 10905 10907 10909 10911 10913 10915 10917 10919
10917 10918 10919 10919 10918 10919 10919 10919 10920 10920 10919 10919 10919 10919 10919 10919 10919 10919 10918 10918 10918 10917 10917 10916 10915 10915 10914 10913 10912 10911 10911 10910 10909 10909 10908 10908 10907 10907 10906 10905 10903 10902 10901 10900 10899 10898 10897 10896 10896 10895 10894 10893 10892 10890 10889 10888 10888 10887 10886 10885 10885 10884 10884 10884 10883 10884 10885 10885 10885 10885 10886 10887 10889 10890 10890 10891 10892 10894 10897 10899 10901 10903 10905 10908 10909
10914 10915 10915 10915 10915 10915 10916 10916 10917 10917 10917 10916 10916 10916 10916 10916 10916 10915 10915 10915 10914 10914 10913 10912 10912 10911 10910 10909 10908 10907 10906 10906 10905 10904 10904 10903 10902 10901 10900 10899 10897 10896 10895 10894 10892 10891 10890 10889 10888 10887 10886 10885 10884 10882 10881 10880 10879 10878 10877 10876 10876 10875 10874 10874 10874 10874 10875 10876 10876 10876 10876 10877 10879 10880 10881 10881 10883 10884 10886 10888 10891 10893 10895 10897 10900
10911 10912 10912 10912 10912 10912 10912 10913 10913 10914 10913 10913 10913 10913 10912 10912 10912 10912 10911 10911 10910 10910 10909 10908 10908 10907 10906 10905 10904 10903 10902 10901 10900 10899 10899 10898 10896 10895 10894 10892 10891 10889 10888 10887 10886 10884 10883 10881 10880 10879 10878 10876 10875 10874 10873 10871 10870 10869 10868 10867 10866 10865 10864 10863 10863 10863 10864 10865 10865 10865 10865 10866 10868 10870 10870 10871 10873 10874 10875 10877 10879 10882 10884 10887 10890
10907 10908 10908 10908 10908 10909 10909 10909 10910 10910 10910 10910 10910 10909 10909 10908 10908 10908 10907 10907 10907 10906 10905 10904 10903 10902 10901 10900 10899 10898 10897 10896 10895 10894 10893 10891 10890 10889 10888 10886 10884 10883 10881 10880 10879 10877 10875 10874 10872 10871 10869 10867 10866 10865 10864 10862 10860 10859 10858 10857 10855 10854 10854 10853 10853 10852 10852 10853 10854 10854 10854 10855 10856 10858 10859 10860 10862 10863 10865 10866 10868 10871 10873 10876 10879
10903 10904 10904 10905 10905 10906 10906 10906 10906 10907 10907 10907 10907 10906 10906 10905 10904 10904 10904 10903 10903 10902 10901 10900 10899 10897 10896 10895 10894 10893 10892 10890 10889 10888 10886 10885 10883 10882 10881 10879 10878 10876 10874 10873 10871 10869 10867 10866 10864 10863 10861 10859 10857 10856 10854 10852 10851 10849 10848 10846 10845 10844 10843 10842 10841 10841 10841 10841 10842 10842 10843 10844 10845 10846 10847 10848 10850 10852 10853 10855 10857 10860 10862 10865 10867
10899 10900 10901 10902 10902 10903 10903 10903 10903 10903 10903 10903 10903 10902 10902 10901 10900 10900 10899 10899 10898 10898 10897 10895 10893 10892 10891 10889 10888 10887 10885 10884 10883 10881 10879 10878 10876 10875 10874 10873 10871 10869 10867 10865 10864 10862 10860 10858 10856 10854 10852 10850 10849 10847 10845 10843 10841 10839 10838 10836 10834 10833 10832 10831 10830 10829 10830 10830 10830 10830 10831 10832 10833 10834 10835 10836 10837 10840 10842 10844 10846 10848 10851 10853 10856
10895 10896 10897 10898 10898 10899 10899 10899 10898 10898 10898 10898 10898 10898 10897 10896 10896 10895 10895 10894 10893 10892 10891 10889 10888 10886 10884 10883 10882 10880 10879 10877 10876 10874 10872 10871 10869 10868 10867 10865 10864 10862 10860 10858 10856 10854 10852 10850 10848 10846 10844 10842 10840 10838 10836 10834 10832 10830 10829 10826 10825 10823 10821 10820 10819 10818 10818 10818 10818 10819 10819 10820 10821 10822 10823 10823 10825 10827 10830 10832 10834 10837 10839 10841 10844
10891 10892 10892 10893 10893 10893 10893 10893 10893 10893 10893 10893 10893 10892 10892 10891 10891 10890 10889 10889 10887 10886 10885 10883 10881 10880 10878 10877 10876 10874 10872 10871 10869 10867 10865 10864 10862 10861 10859 10858 10856 10854 10852 10850 10848 10846 10844 10842 10840 10837 10835 10833 10832 10830 10828 10825 10823 10822 10820 10818 10816 10814 10812 10810 10809 10808 10807 10807 10807 10807 10808 10809 10809 10810 10811 10812 10812 10815 10817 10819 10822 10825 10827 10829 10832
10886 10887 10887 10888 10888 10888 10888 10888 10888 10888 10888 10888 10888 10887 10887 10886 10885 10885 10884 10883 10881 10880 10879 10877 10875 10874 10872 10871 10869 10868 10866 10864 10862 10860 10858 10857 10855 10853 10852 10850 10848 10846 10844 10842 10840 10837 10835 10833 10831 10828 10826 10824 10823 10821 10819 10816 10814 10813 10811 10809 10807 10804 10802 10801 10799 10798 10796 10796 10796 10796 10797 10798 10798 10798 10799 10801 10801 10803 10805 10807 10809 10812 10814 10817 10820
10882 10882 10883 10883 10883 10883 10883 10883 10883 10883 10883 10883 10882 10882 10882 10881 10880 10879 10878 10876 10875 10874 10873 10871 10869 10868 10866 10865 10863 10861 10859 10857 10855 10854 10852 10850 10848 10846 10844 10842 10840 10838 10836 10833 10831 10828 10826 10824 10822 10819 10816 10814 10812 10811 10809 10807 10805 10803 10801 10799 10797 10795 10793 10791 10789 10787 10786 10785 10785 10785 10785 10786 10787 10787 10788 10790 10790 10792 10793 10795 10796 10799 10802 10804 10806
10878 10879 10879 10879 10879 10878 10878 10878 10878 10878 10878 10878 10877 10877 10876 10875 10874 10873 10871 10870 10870 10868 10866 10865 10863 10862 10860 10858 10857 10855 10853 10851 10849 10848 10846 10844 10841 10839 10837 10834 10831 10829 10827 10824 10821 10819 10817 10814 10812 10810 10807 10804 10802 10800 10799 10798 10796 10794 10792 10790 10787 10784 10783 10781 10779 10777 10776 10775 10774 10774 10774 10774 10774 10776 10777 10778 10779 10781 10782 10783 10785 10787 10789 10790 10793
10875 10875 10874 10874 10874 10874 10874 10874 10874 10874 10873 10873 10872 10871 10870 10869 10868 10867 10865 10865 10864 10862 10860 10859 10857 10855 10854 10852 10850 10848 10846 10844 10843 10841 10839 10836 10834 10831 10829 10826 10823 10820 10818 10815 10812 10810 10807 10805 10802 10800 10797 10794 10791 10790 10789 10788 10786 10783 10782 10780 10777 10774 10773 10771 10768 10766 10765 10764 10763 10762 10762 10762 10762 10763 10764 10766 10768 10770 10771 10772 10774 10776 10776 10777 10780
10870 10870 10870 10870 10870 10869 10869 10869 10869 10869 10869 10868 10867 10866 10865 10863 10862 10861 10860 10859 10858 10857 10854 10853 10851 10849 10847 10845 10842 10841 10839 10837 10835 10833 10831 10829 10826 10824 10821 10819 10816 10812 10809 10806 10803 10800 10797 10794 10792 10790 10787 10784 10781 10780 10778 10777 10775 10773 10771 10768 10766 10763 10761 10759 10757 10755 10754 10753 10752 10752 10751 10750 10750 10751 10752 10754 10756 10758 10759 10761 10763 10763 10763 10765 10769
10866 10866 10866 10865 10865 10865 10865 10865 10865 10864 10863 10862 10861 10860 10859 10858 10856 10855 10854 10854 10853 10851 10848 10846 10844 10842 10840 10838 10836 10834 10832 10830 10828 10825 10823 10821 10819 10816 10813 10811 10808 10804 10801 10797 10794 10791 10787 10784 10781 10779 10777 10774 10771 10768 10767 10765 10763 10761 10759 10757 10754 10752 10749 10747 10745 10744 10743 10742 10741 10740 10739 10739 10739 10739 10740 10742 10744 10746 10747 10749 10750 10751 10752 10754 10757
10861 10861 10861 10860 10860 10860 10860 10860 10860 10859 10858 10857 10856 10855 10854 10852 10851 10850 10849 10848 10847 10845 10842 10840 10838 10836 10834 10832 10830 10828 10826 10823 10821 10818 10816 10813 10811 10808 10805 10802 10799 10795 10791 10787 10784 10781 10777 10774 10771 10769 10766 10764 10760 10757 10756 10754 10752 10750 10748 10745 10743 10741 10739 10736 10734 10732 10731 10731 10730 10728 10727 10727 10728 10727 10728 10730 10732 10733 10735 10736 10737 10738 10739 10742 10744
10856 10856 10856 10855 10855 10855 10855 10855 10855 10854 10852 10851 10850 10849 10848 10847 10846 10845 10844 10843 10841 10838 10836 10834 10832 10829 10828 10826 10824 10822 10819 10816 10813 10811 10808 10805 10802 10799 10796 10793 10789 10786 10781 10777 10774 10771 10767 10764 10762 10759 10756 10753 10750 10746 10744 10743 10741 10739 10737 10734 10731 10729 10727 10725 10723 10722 10720 10719 10719 10717 10716 10716 10717 10716 10717 10719 10720 10721 10722 10723 10725 10726 10728 10730 10731
10852 10852 10851 10851 10850 10851 10850 10850 10849 10848 10847 10846 10844 10843 10843 10842 10841 10840 10839 10837 10835 10833 10830 10828 10826 10824 10822 10820 10818 10815 10812 10809 10806 10803 10800 10797 10794 10791 10787 10784 10780 10776 10773 10769 10765 10762 10758 10753 10751 10748 10745 10742 10739 10735 10733 10731 10730 10728 10726 10723 10720 10718 10716 10714 10712 10710 10709 10708 10707 10706 10705 10705 10706 10706 10706 10706 10708 10710 10710 10711 10712 10714 10716 10717 10717
10847 10847 10847 10847 10846 10846 10846 10845 10844 10843 10842 10840 10839 10838 10837 10837 10836 10835 10833 10831 10829 10827 10824 10822 10820 10818 10816 10814 10811 10808 10805 10802 10799 10796 10792 10789 10786 10783 10779 10775 10771 10768 10764 10760 10756 10752 10748 10743 10739 10736 10734 10731 10729 10725 10722 10719 10718 10717 10715 10713 10709 10707 10705 10703 10701 10699 10698 10697 10696 10694 10694 10695 10695 10695 10694 10694 10696 10698 10699 10699 10701 10703 10704 10704 10705
10843 10843 10843 10843 10842 10842 10841 10840 10839 10838 10836 10835 10834 10833 10832 10831 10830 10828 10827 10825 10822 10820 10818 10816 10814 10812 10810 10807 10804 10802 10798 10795 10792 10789 10785 10782 10778 10774 10771 10767 10763 10759 10754 10750 10745 10742 10738 10733 10729 10725 10723 10720 10718 10715 10712 10709 10706 10705 10704 10702 10699 10696 10695 10693 10691 10689 10688 10686 10685 10683 10683 10683 10684 10684 10683 10683 10684 10686 10688 10689 10690 10691 10691 10691 10694
10839 10838 10838 10838 10838 10837 10836 10835 10833 10832 10831 10830 10829 10828 10827 10825 10824 10822 10820 10818 10816 10814 10812 10810 10808 10806 10803 10801 10798 10795 10791 10788 10785 10781 10778 10774 10770 10766 10762 10759 10755 10751 10746 10741 10736 10732 10728 10724 10719 10715 10712 10710 10707 10705 10702 10699 10696 10694 10693 10691 10689 10686 10684 10683 10681 10679 10677 10675 10673 10672 10671 10672 10672 10672 10672 10673 10674 10675 10678 10679 10679 10679 10680 10681 10683
10834 10834 10834 10833 10833 10832 10830 10829 10828 10827 10826 10825 10824 10822 10821 10820 10818 10816 10814 10812 10810 10808 10806 10804 10802 10799 10796 10793 10790 10787 10784 10781 10777 10774 10770 10766 10762 10758 10753 10750 10746 10742 10737 10732 10727 10722 10718 10714 10709 10705 10702 10699 10697 10694 10692 10689 10686 10684 10682 10680 10678 10675 10673 10671 10669 10667 10665 10663 10661 10660 10660 10659 10660 10661 10661 10662 10663 10664 10665 10666 10666 10667 10668 10670 10672
10829 10829 10829 10828 10827 10826 10825 10823 10822 10822 10821 10820 10818 10817 10815 10814 10812 10810 10808 10806 10804 10802 10800 10798 10795 10792 10789 10786 10782 10779 10776 10773 10769 10766 10762 10758 10754 10749 10745 10741 10737 10733 10728 10724 10718 10713 10709 10705 10700 10695 10691 10689 10686 10684 10682 10679 10677 10674 10672 10670 10667 10664 10662 10659 10657 10655 10652 10650 10649 10648 10648 10648 10648 10649 10650 10649 10650 10651 10652 10653 10653 10654 10656 10658 10661
10824 10824 10824 10823 10822 10821 10819 10818 10818 10817 10816 10814 10813 10811 10810 10808 10806 10804 10802 10800 10798 10796 10794 10791 10788 10785 10781 10778 10775 10772 10768 10765 10761 10758 10754 10751 10746 10741 10736 10731 10727 10723 10719 10714 10709 10704 10699 10695 10690 10685 10681 10678 10676 10674 10671 10669 10666 10664 10662 10659 10656 10653 10650 10648 10645 10643 10640 10638 10637 10636 10636 10636 10636 10637 10637 10637 10637 10638 10638 10639 10640 10641 10643 10646 10648
10819 10819 10818 10818 10817 10816 10815 10814 10813 10812 10811 10809 10808 10806 10804 10802 10800 10798 10796 10794 10792 10790 10787 10784 10781 10777 10774 10771 10768 10764 10761 10757 10753 10749 10746 10742 10738 10733 10727 10722 10717 10713 10708 10703 10699 10695 10691 10686 10681 10677 10672 10668 10665 10663 10662 10660 10656 10653 10651 10648 10644 10640 10638 10636 10634 10632 10629 10627 10625 10625 10625 10626 10626 10626 10625 10625 10624 10624 10625 10626 10627 10629 10631 10633 10635
10815 10814 10813 10813 10812 10811 10810 10809 10808 10807 10806 10804 10802 10800 10799 10797 10795 10792 10790 10788 10785 10783 10780 10777 10774 10770 10767 10764 10761 10757 10753 10749 10744 10740 10736 10732 10728 10723 10718 10713 10709 10704 10699 10694 10690 10686 10682 10678 10673 10668 10664 10659 10655 10653 10652 10650 10647 10643 10640 10637 10633 10630 10627 10625 10623 10622 10620 10618 10616 10616 10616 10616 10616 10615 10614 10613 10613 10613 10614 10614 10615 10617 10619 10620 10622
10810 10809 10808 10808 10807 10806 10805 10804 10803 10802 10800 10798 10797 10795 10793 10791 10788 10786 10784 10782 10779 10776 10774 10770 10767 10764 10761 10758 10754 10749 10745 10740 10735 10731 10727 10723 10718 10713 10708 10704 10701 10697 10692 10687 10682 10677 10674 10670 10665 10661 10656 10651 10646 10643 10642 10641 10637 10633 10629 10625 10623 10620 10618 10615 10614 10613 10611 10610 10609 10609 10609 10607 10606 10606 10605 10604 10604 10604 10604 10604 10605 10606 10607 10608 10609
10805 10804 10803 10803 10802 10801 10800 10799 10797 10796 10794 10792 10791 10789 10787 10784 10782 10780 10778 10776 10773 10770 10767 10764 10760 10757 10754 10750 10746 10741 10737 10732 10727 10722 10717 10713 10709 10705 10699 10694 10691 10689 10686 10681 10676 10671 10666 10661 10657 10652 10648 10643 10637 10633 10631 10630 10627 10623 10619 10616 10614 10612 10610 10608 10606 10605 10603 10602 10603 10602 10601 10599 10598 10597 10595 10595 10595 10595 10594 10594 10594 10595 10596 10596 10597
10800 10799 10799 10798 10797 10796 10795 10793 10792 10790 10788 10787 10785 10783 10781 10778 10776 10774 10772 10770 10767 10764 10760 10757 10754 10751 10747 10742 10738 10733 10728 10724 10719 10714 10708 10703 10699 10696 10693 10687 10682 10680 10678 10675 10670 10666 10660 10654 10648 10643 10638 10634 10630 10625 10622 10619 10617 10614 10611 10608 10606 10605 10603 10601 10599 10598 10597 10597 10596 10595 10593 10592 10590 10588 10586 10586 10586 10586 10585 10584 10584 10585 10585 10586 10587
10795 10794 10794 10793 10792 10791 10789 10788 10786 10785 10783 10782 10780 10778 10775 10773 10771 10769 10766 10764 10761 10757 10754 10751 10748 10744 10739 10734 10730 10725 10721 10716 10712 10707 10702 10695 10690 10686 10684 10681 10676 10671 10668 10665 10662 10658 10653 10648 10642 10635 10630 10625 10622 10618 10614 10612 10609 10606 10604 10602 10600 10598 10597 10596 10594 10593 10593 10592 10590 10589 10588 10586 10584 10582 10580 10579 10578 10578 10577 10577 10576 10576 10577 10577 10578